星链-34388 (STARLINK-34388)

导读

STARLINK-34388是美国太空探索技术公司(SpaceX)于2025年6月8日发射的星链(Starlink)低轨通信卫星,属于星链巨型星座组网计划的组成部分。该卫星运行于近地轨道,依托星链系统的先进通信技术,旨在为全球尤其是偏远网络覆盖不足地区提供低延迟、高速的宽带互联网接入服务,进一步扩展星链星座的全球覆盖能力与网络服务容量,推动全球互联网接入的普惠性发展。

Basic Information
目录编号:
64294
目录名称:
STARLINK-34388
国际标识:
2025-123D
轨道中心:
EARTH
卫星名称:
星链-34388
卫星全名:
星链-34388 (STARLINK-34388)
卫星状态:
在轨 (已飞行453 天)
发射日期:
2025-06-08 UTC
国别 :
美国 (US)
星等 :
--
Orbit Information
数据来源 国际轨道数据
星历时间: 2026-09-04T12:00:02+0800
5小时前
查看轨道信息
半长轴: 6855.206km
偏心率: 0.0003137
轨道倾角: 70.000°
近地点辐角 276.227°
升交点赤经 104.056°
平近点角 47.072°
近地点: 474.918km
远地点: 479.22km
周期: 94.144分钟
每日圈数: 15.295796
Detailed Information
固有亮度:
5
最大亮度:
2.5
卫星平台:
Starlink V1.0
覆盖范围:
全球
运营商:
太空探索技术公司
运营商所在国:
美国
制造商(研发单位):
太空探索技术公司
制造商所在国:
美国
使用方式:
暂无
Satellite Introduction
Starlink 计划是 SpaceX 推出的全球卫星互联网项目,通过发射低轨道卫星,为全球尤其是偏远地区提供高速、低延迟的互联网服务。自 2019 年起,Starlink 已部署数千颗卫星,旨在缩小全球数字鸿沟,推动互联网普及。该项目还为军事、航空等行业提供通信支持,带来广泛经济效益。
2D Orbit Map
3D Orbit Map
Orbit Altitude Analysis Chart
Orbit Inclination Analysis Chart
Orbit Comprehensive Analysis Chart
View Comprehensive Chart
Conjunction Data List
Event ID Objects TCA Miss Dist (km) Collision Risk Probability Collision Risk Index (CRI) Action
CDM_260903-042106-304006-429421
2026-09-03T
04:21:50+0000
0.691 km
远距离
4.631695E-5 中风险 0.68
CDM_260902-093804-014306-429421
2026-09-02T
09:38:28+0000
2.752 km
极远距离
1.520744E-6 低风险 0.39
CDM_260905-004305-983506-429421
2026-09-05T
00:43:20+0000
2.967 km
极远距离
1.157257E-6 低风险 0.36